HORIZONS 2

Last updated on Dec. 5, 2020, 6:14 a.m. UTC

1 32388U 07063B   20339.77254104 -.00000167  00000-0  00000-0 0  9992
2 32388   0.0108  23.7859 0002926 226.2776 186.9613  1.00270736 47584
UTC
Height (km)
Latitude
Longitude
Inclination
Orbital Period
UTC large
Height (km)
Speed (km/s)
/
Latitude / Longitude
Inclination (degrees)
Orbital Period (minutes)
Azimuth
Elevation
Range (km)
Doppler Factor
iOS Compass Heading
iOS Angle

Next 30 passes for location: Hong Kong

Rise time Rise Azimuth (degrees) Set time Set Azimuth (degrees) Duration Max altitude (degrees)

No matching passes for this satellites